Anchorage Merrill, AK

8:52 AM AKDT on August 21, 2017 (GMT -0800)
Merrill

Weather History for PAMR - August, 2015

Change the Weather History Date:

Friday, August 14, 2015

  Actual Average Record
Temperature  
Mean Temperature 62 °F -  
Max Temperature 71 °F 64 °F 73 °F (2007)
Min Temperature 54 °F 50 °F 46 °F (2002)
Degree Days  
Heating Degree Days 3    
Growing Degree Days 12 (Base 50)    
Moisture  
Dew Point 48 °F    
Average Humidity 60    
Maximum Humidity 80    
Minimum Humidity 44    
Precipitation  
Precipitation 0.00 in - - ()
Sea Level Pressure  
Sea Level Pressure 30.14 in    
Wind  
Wind Speed 5 mph (WSW)    
Max Wind Speed 10 mph    
Max Gust Speed -    
Visibility 10 miles    
Events      
Averages and records for this station are not official NWS values.
T = Trace of Precipitation, MM = Missing Value Source: NWS Daily Summary

Daily Weather History Graph

Daily Weather History Graph

Search for Another Location

Airport or City:

Trip Planner

Search our weather history database for the weather conditions in past years. The results will help you decide how hot, cold, wet, or windy it might be!

Date:

Astronomy

Aug. 14, 2015 Rise Set
Actual Time 6:05 AM AKDT 10:01 PM AKDT
Civil Twilight 5:09 AM AKDT 10:55 PM AKDT
Nautical Twilight 3:41 AM AKDT 12:21 AM AKDT
Astronomical Twilight Sun does not set Sun does not set
Moon 6:34 AM AKDT (8/14) 9:34 PM AKDT (8/14)
Length of Visible Light 17h 46m
Length of Day
15h 56m
New Moon, 0% of the Moon is Illuminated
Aug 14
New Moon
Aug 22
First Quarter
Aug 29
Full
Sep 5
Last Quarter
Sep 12
New

Hourly Weather History & Observations

Time (AKDT) Temp. Dew Point Humidity Pressure Visibility Wind Dir Wind Speed Gust Speed Precip Events Conditions
12:53 AM 63.0 °F 48.9 °F 60% 30.12 in 10.0 mi WNW 5.8 mph - N/A   Mostly Cloudy
1:53 AM 63.0 °F 46.9 °F 56% 30.14 in 10.0 mi South 5.8 mph - N/A   Overcast
2:53 AM 61.0 °F 50.0 °F 67% 30.14 in 10.0 mi South 4.6 mph - N/A   Overcast
3:53 AM 57.9 °F 48.0 °F 70% 30.15 in 10.0 mi SSE 3.5 mph - N/A   Scattered Clouds
4:53 AM 57.0 °F 48.9 °F 74% 30.15 in 10.0 mi Calm Calm - N/A   Mostly Cloudy
5:53 AM 54.0 °F 48.0 °F 80% 30.15 in 10.0 mi SE 3.5 mph - N/A   Scattered Clouds
6:53 AM 54.0 °F 46.9 °F 77% 30.16 in 10.0 mi Calm Calm - N/A   Partly Cloudy
7:53 AM 55.9 °F 48.9 °F 77% 30.16 in 10.0 mi Calm Calm - N/A   Partly Cloudy
8:53 AM 61.0 °F 48.9 °F 64% 30.16 in 10.0 mi Calm Calm - N/A   Overcast
9:53 AM 64.0 °F 48.9 °F 58% 30.17 in 10.0 mi SSW 6.9 mph - N/A   Overcast
10:53 AM 64.0 °F 50.0 °F 60% 30.17 in 10.0 mi Variable 3.5 mph - N/A   Mostly Cloudy
11:53 AM 64.0 °F 51.1 °F 63% 30.16 in 10.0 mi WNW 9.2 mph - N/A   Partly Cloudy
12:53 PM 66.0 °F 51.1 °F 59% 30.16 in 10.0 mi West 8.1 mph - N/A   Scattered Clouds
1:53 PM 66.9 °F 50.0 °F 54% 30.15 in 10.0 mi WNW 8.1 mph - N/A   Partly Cloudy
2:53 PM 66.9 °F 48.0 °F 51% 30.15 in 10.0 mi West 9.2 mph - N/A   Scattered Clouds
3:53 PM 69.1 °F 48.9 °F 49% 30.14 in 10.0 mi West 8.1 mph - N/A   Clear
4:53 PM 70.0 °F 46.9 °F 44% 30.13 in 10.0 mi West 8.1 mph - N/A   Scattered Clouds
5:53 PM 69.1 °F 46.0 °F 44% 30.12 in 10.0 mi WSW 10.4 mph - N/A   Partly Cloudy
6:53 PM 66.0 °F 45.0 °F 47% 30.11 in 10.0 mi WSW 9.2 mph - N/A   Clear
7:53 PM 66.9 °F 46.0 °F 47% 30.10 in 10.0 mi West 6.9 mph - N/A   Scattered Clouds
8:53 PM 64.9 °F 46.0 °F 50% 30.09 in 10.0 mi SSW 4.6 mph - N/A   Partly Cloudy
9:53 PM 62.1 °F 46.9 °F 58% 30.10 in 10.0 mi West 6.9 mph - N/A   Partly Cloudy
10:53 PM 60.1 °F 48.9 °F 67% 30.10 in 10.0 mi Calm Calm - N/A   Partly Cloudy
11:53 PM 57.0 °F 48.0 °F 72% 30.11 in 10.0 mi Calm Calm - N/A   Partly Cloudy